Weather Roundup
Issued by NWS Springfield, MO

Home | Current Version | Previous Version | Text Only | Print | Product List | Glossary On
Versions: 1 2 3 4 5 6 7 8 9 10 11 12 13 14 15 16 17 18 19 20 21 22 23 24 25 26 27 28 29 30 31 32 33 34 35 36 37 38 39 40 41 42 43 44 45 46 47 48 49 50
000
NZUS99 KSGF 220407
HRRSGF

HOURLY WEATHER
NATIONAL WEATHER SERVICE SPRINGFIELD MO
1100 PM CDT THU AUG 21 2014

......SGF CWA......

CITY           SKY/WX    TMP DP  RH WIND       PRES   REMARKS
SPRINGFIELD    CLEAR     78  67  68 S9        30.02R
JOPLIN         CLEAR     82  70  66 S14       29.99R
WEST PLAINS    CLEAR     79  64  60 SW6       30.06R
ROLLA          CLEAR     82  66  58 S12       29.98R
OSAGE BEACH    CLEAR     82  66  57 S6        29.98R
BRANSON        CLEAR     77  70  78 S3        30.06R

......SURROUNDING SGF CWA......

CITY           SKY/WX    TMP DP  RH WIND       PRES   REMARKS
CHANUTE        CLEAR     83  70  64 S16G24    29.95S
PARSONS        CLEAR     83  70  64 S10       29.97S
COFFEYVILLE    CLEAR     82  71  69 S8        29.96R
EMPORIA        CLEAR     83  73  72 S17       29.91S
GROVE OK       CLEAR     81  72  74 S8        30.00S
ROGERS AR      CLEAR     79  70  74 S9        30.06R
SILOAM SPRINGS CLEAR     79  66  65 S9        30.05S
HARRISON AR    CLEAR     78  71  79 S6        30.06R
NEAR YELLVILLE PTCLDY    81  66  61 S5        30.04R

......KANSAS AND MISSOURI......

CITY           SKY/WX    TMP DP  RH WIND       PRES   REMARKS
KANSAS CTY INT CLEAR     85  72  65 S13       29.90S HX  91
DOWNTOWN KC    CLEAR     88  71  57 S12G26    29.89R HX  94
COLUMBIA       PTCLDY    80  74  81 S6        29.96R
SEDALIA        CLEAR     82  69  64 SW8       29.96R
ST JOSEPH      PTCLDY    83  73  72 S9        29.87R
ST LOUIS       MOCLDY    87  75  67 S12       29.96R HX  96
SPIRIT OF STL  MOCLDY    83  74  74 S6        29.95R
KIRKSVILLE     CLOUDY    79  75  87 S7        29.93R
WICHITA        CLEAR     85  70  60 S17G26    29.90S
TOPEKA         PTCLDY    88  74  63 S15       29.88S HX  96
OLATHE         CLEAR     82  71  69 S9        29.92R

......TENNESSEE......

CITY           SKY/WX    TMP DP  RH WIND       PRES   REMARKS
MEMPHIS        CLEAR     85  73  67 SW9G21    30.05S HX  91
NASHVILLE      CLEAR     80  73  79 CALM      30.09R

......ARKANSAS.......

CITY           SKY/WX    TMP DP  RH WIND       PRES   REMARKS
FAYETTEVILLE   CLEAR     79  72  79 S9        30.05R
FT SMITH       CLEAR     82  73  74 E3        30.00S
LITTLE ROCK    PTCLDY    79  73  82 SE3       30.03F

......OKLAHOMA.......

CITY           SKY/WX    TMP DP  RH WIND       PRES   REMARKS
TULSA          CLEAR     86  72  62 S14       29.95R HX  92
PONCA CITY     CLEAR     87  70  56 S12G22    29.92S HX  92
MCALESTER      CLEAR     85  69  58 S7        30.00R
OKLAHOMA CITY  CLEAR     84  68  58 S14       29.95S

......IOWA............

CITY           SKY/WX    TMP DP  RH WIND       PRES   REMARKS
DES MOINES     MOCLDY    82  76  81 SE5       29.88R
QUAD CITIES    PTCLDY    76  73  91 CALM      29.89S

......ILLINOIS........

CITY           SKY/WX    TMP DP  RH WIND       PRES   REMARKS
QUINCY         PTCLDY    81  75  82 S8        29.92R
CHICAGO        LGT RAIN  75  70  84 S3        29.95R



USA.gov is the U.S. government's official web portal to all federal, state and local government web resources and services.